Location: Nitra
(0.0000°N, 18.0833°E)
Time: 19:07:26
(UTC+02:00)

A-11 Canister half - Pass Details

Date: 07 April 2023
Orbit: 1526 x 1682 km, 47.3° (Epoch: 08 June)

Event Time Altitude Azimuth Distance (km) Brightness Sun altitude
Rises 09:35:03 0° 209° (SSW) 4,802 11.3 40.9°
Reaches altitude 10° 09:38:14 10° 205° (SSW) 3,836 10.9 41.7°
Maximum altitude 09:47:45 54° 129° (SE) 1,941 10.7 44.1°
Drops below altitude 10° 09:57:29 10° 55° (NE) 3,925 12.0 46.5°
Sets 10:00:45 0° 51° (NE) 4,920 12.2 47.3°
